owner,sensor,date,latitude,longitude,vertical_datum,wind_speed,wind_to_direction,wind_speed_of_gust,qcFlag 
TCOON,ioos:station:TCOON:005:1,2017-08-01T00:00:00Z,27.6346,-97.2370,0.0,4.6,118.0,5.7,'11111222,11111222,11111222' 
TCOON,ioos:station:TCOON:005:1,2017-08-01T00:06:00Z,27.6346,-97.2370,0.0,5.1,106.0,5.9,'11111222,11111222,11111222' 
TCOON,ioos:station:TCOON:005:1,2017-08-01T00:12:00Z,27.6346,-97.2370,0.0,5.4,115.0,7.0,'11111222,11111222,11111222' 
TCOON,ioos:station:TCOON:005:1,2017-08-01T00:18:00Z,27.6346,-97.2370,0.0,5.4,115.0,7.0,'1111122,1111122,1111122' 
TCOON,ioos:station:TCOON:005:1,2017-08-01T00:24:00Z,27.6346,-97.2370,0.0,4.9,116.0,6.1,'11111222,11111222,11111222' 
TCOON,ioos:station:TCOON:005:1,2017-08-01T00:30:00Z,27.6346,-97.2370,0.0,5.5,119.0,6.3,'11111222,11111222,11111222' 
TCOON,ioos:station:TCOON:005:1,2017-08-01T00:36:00Z,27.6346,-97.2370,0.0,5.0,113.0,6.0,'11111222,11111222,11111222' 
TCOON,ioos:station:TCOON:005:1,2017-08-01T00:42:00Z,27.6346,-97.2370,0.0,3.8,122.0,6.2,'11111222,11111222,11111222' 
TCOON,ioos:station:TCOON:005:1,2017-08-01T00:48:00Z,27.6346,-97.2370,0.0,4.2,129.0,4.9,'11111222,11111222,11111222' 
TCOON,ioos:station:TCOON:005:1,2017-08-01T00:54:00Z,27.6346,-97.2370,0.0,3.9,129.0,5.0,'11111222,11111222,11111222' 
TCOON,ioos:station:TCOON:005:1,2017-08-01T01:00:00Z,27.6346,-97.2370,0.0,4.1,131.0,5.2,'11111222,11111222,11111222' 
TCOON,ioos:station:TCOON:005:1,2017-08-01T01:06:00Z,27.6346,-97.2370,0.0,3.6,129.0,5.2,'11111222,11111222,11111222' 
TCOON,ioos:station:TCOON:005:1,2017-08-01T01:12:00Z,27.6346,-97.2370,0.0,3.9,114.0,4.9,'11111222,11111222,11111222' 
TCOON,ioos:station:TCOON:005:1,2017-08-01T01:18:00Z,27.6346,-97.2370,0.0,3.9,114.0,4.9,'1111122,1111122,1111122' 
TCOON,ioos:station:TCOON:005:1,2017-08-01T01:24:00Z,27.6346,-97.2370,0.0,3.9,113.0,5.3,'11111222,11111222,11111222' 
TCOON,ioos:station:TCOON:005:1,2017-08-01T01:30:00Z,27.6346,-97.2370,0.0,4.4,118.0,5.4,'11111222,11111222,11111222' 
TCOON,ioos:station:TCOON:005:1,2017-08-01T01:36:00Z,27.6346,-97.2370,0.0,4.2,115.0,5.1,'11111222,11111222,11111222' 
TCOON,ioos:station:TCOON:005:1,2017-08-01T01:42:00Z,27.6346,-97.2370,0.0,3.8,116.0,5.4,'11111222,11111222,11111222' 
TCOON,ioos:station:TCOON:005:1,2017-08-01T01:48:00Z,27.6346,-97.2370,0.0,3.6,114.0,4.7,'11111222,11111222,11111222' 
TCOON,ioos:station:TCOON:005:1,2017-08-01T01:54:00Z,27.6346,-97.2370,0.0,4.0,113.0,4.7,'11111222,11111222,11111222' 
TCOON,ioos:station:TCOON:005:1,2017-08-01T02:00:00Z,27.6346,-97.2370,0.0,3.8,116.0,5.2,'11111222,11111222,11111222' 
TCOON,ioos:station:TCOON:005:1,2017-08-01T02:06:00Z,27.6346,-97.2370,0.0,3.9,110.0,4.8,'11111222,11111222,11111222' 
TCOON,ioos:station:TCOON:005:1,2017-08-01T02:12:00Z,27.6346,-97.2370,0.0,3.9,111.0,4.8,'11111222,11111222,11111222' 
TCOON,ioos:station:TCOON:005:1,2017-08-01T02:18:00Z,27.6346,-97.2370,0.0,3.9,111.0,4.8,'1111122,1111122,1111122' 
TCOON,ioos:station:TCOON:005:1,2017-08-01T02:24:00Z,27.6346,-97.2370,0.0,4.1,110.0,4.7,'11111222,11111222,11111222' 
TCOON,ioos:station:TCOON:005:1,2017-08-01T02:30:00Z,27.6346,-97.2370,0.0,3.3,115.0,4.7,'11111222,11111222,11111222' 
TCOON,ioos:station:TCOON:005:1,2017-08-01T02:36:00Z,27.6346,-97.2370,0.0,3.8,116.0,4.5,'11111222,11111222,11111222' 
TCOON,ioos:station:TCOON:005:1,2017-08-01T02:42:00Z,27.6346,-97.2370,0.0,3.7,112.0,5.8,'11111222,11111222,11111222' 
TCOON,ioos:station:TCOON:005:1,2017-08-01T02:48:00Z,27.6346,-97.2370,0.0,3.5,111.0,4.6,'11111222,11111222,11111222' 
TCOON,ioos:station:TCOON:005:1,2017-08-01T02:54:00Z,27.6346,-97.2370,0.0,3.6,111.0,4.6,'11111222,11111222,11111222' 
TCOON,ioos:station:TCOON:005:1,2017-08-01T03:00:00Z,27.6346,-97.2370,0.0,3.6,109.0,4.5,'11111222,11111222,11111222' 
TCOON,ioos:station:TCOON:005:1,2017-08-01T03:06:00Z,27.6346,-97.2370,0.0,4.1,109.0,4.8,'11111222,11111222,11111222' 
TCOON,ioos:station:TCOON:005:1,2017-08-01T03:12:00Z,27.6346,-97.2370,0.0,3.7,106.0,4.8,'11111222,11111222,11111222' 
TCOON,ioos:station:TCOON:005:1,2017-08-01T03:18:00Z,27.6346,-97.2370,0.0,3.7,106.0,4.8,'1111122,1111122,1111122' 
TCOON,ioos:station:TCOON:005:1,2017-08-01T03:24:00Z,27.6346,-97.2370,0.0,4.0,104.0,4.5,'11111222,11111222,11111222' 
TCOON,ioos:station:TCOON:005:1,2017-08-01T03:30:00Z,27.6346,-97.2370,0.0,3.8,97.0,4.3,'11111222,11111222,11111222' 
TCOON,ioos:station:TCOON:005:1,2017-08-01T03:36:00Z,27.6346,-97.2370,0.0,3.8,98.0,5.1,'11111222,11111222,11111222' 
TCOON,ioos:station:TCOON:005:1,2017-08-01T03:42:00Z,27.6346,-97.2370,0.0,4.2,99.0,4.9,'11111222,11111222,11111222' 
TCOON,ioos:station:TCOON:005:1,2017-08-01T03:48:00Z,27.6346,-97.2370,0.0,4.4,98.0,5.2,'11111222,11111222,11111222' 
TCOON,ioos:station:TCOON:005:1,2017-08-01T03:54:00Z,27.6346,-97.2370,0.0,3.9,101.0,4.8,'11111222,11111222,11111222' 
TCOON,ioos:station:TCOON:005:1,2017-08-01T04:00:00Z,27.6346,-97.2370,0.0,3.8,102.0,4.9,'11111222,11111222,11111222' 
TCOON,ioos:station:TCOON:005:1,2017-08-01T04:06:00Z,27.6346,-97.2370,0.0,3.7,104.0,4.5,'11111222,11111222,11111222' 
TCOON,ioos:station:TCOON:005:1,2017-08-01T04:12:00Z,27.6346,-97.2370,0.0,3.9,105.0,4.6,'11111222,11111222,11111222' 
TCOON,ioos:station:TCOON:005:1,2017-08-01T04:18:00Z,27.6346,-97.2370,0.0,3.9,105.0,4.6,'1111122,1111122,1111122' 
TCOON,ioos:station:TCOON:005:1,2017-08-01T04:24:00Z,27.6346,-97.2370,0.0,3.5,111.0,4.5,'11111222,11111222,11111222' 
TCOON,ioos:station:TCOON:005:1,2017-08-01T04:30:00Z,27.6346,-97.2370,0.0,3.0,113.0,4.3,'11111222,11111222,11111222' 
TCOON,ioos:station:TCOON:005:1,2017-08-01T04:36:00Z,27.6346,-97.2370,0.0,3.5,110.0,4.5,'11111222,11111222,11111222' 
TCOON,ioos:station:TCOON:005:1,2017-08-01T04:42:00Z,27.6346,-97.2370,0.0,3.5,110.0,4.1,'11111222,11111222,11111222' 
TCOON,ioos:station:TCOON:005:1,2017-08-01T04:48:00Z,27.6346,-97.2370,0.0,3.4,109.0,4.1,'11111222,11111222,11111222' 
TCOON,ioos:station:TCOON:005:1,2017-08-01T04:54:00Z,27.6346,-97.2370,0.0,3.2,107.0,3.9,'11111222,11111222,11111222' 
TCOON,ioos:station:TCOON:005:1,2017-08-01T05:00:00Z,27.6346,-97.2370,0.0,2.9,113.0,3.8,'11111222,11111222,11111222' 
TCOON,ioos:station:TCOON:005:1,2017-08-01T05:06:00Z,27.6346,-97.2370,0.0,2.9,117.0,3.5,'11111222,11111222,11111222' 
TCOON,ioos:station:TCOON:005:1,2017-08-01T05:12:00Z,27.6346,-97.2370,0.0,2.9,112.0,3.9,'11111222,11111222,11111222' 
TCOON,ioos:station:TCOON:005:1,2017-08-01T05:18:00Z,27.6346,-97.2370,0.0,2.9,112.0,3.9,'1111122,1111122,1111122' 
TCOON,ioos:station:TCOON:005:1,2017-08-01T05:24:00Z,27.6346,-97.2370,0.0,2.7,117.0,3.3,'11111222,11111222,11111222' 
TCOON,ioos:station:TCOON:005:1,2017-08-01T05:30:00Z,27.6346,-97.2370,0.0,2.5,114.0,3.1,'11111222,11111222,11111222' 
TCOON,ioos:station:TCOON:005:1,2017-08-01T05:36:00Z,27.6346,-97.2370,0.0,2.4,120.0,2.9,'11111222,11111222,11111222' 
TCOON,ioos:station:TCOON:005:1,2017-08-01T05:42:00Z,27.6346,-97.2370,0.0,2.3,129.0,3.1,'11111222,11111222,11111222' 
TCOON,ioos:station:TCOON:005:1,2017-08-01T05:48:00Z,27.6346,-97.2370,0.0,1.8,125.0,2.5,'11111222,11111222,11111222' 
TCOON,ioos:station:TCOON:005:1,2017-08-01T05:54:00Z,27.6346,-97.2370,0.0,1.8,130.0,2.3,'11111222,11111222,11111222' 
TCOON,ioos:station:TCOON:005:1,2017-08-01T06:00:00Z,27.6346,-97.2370,0.0,1.9,124.0,2.3,'11111222,11111222,11111222' 
TCOON,ioos:station:TCOON:005:1,2017-08-01T06:06:00Z,27.6346,-97.2370,0.0,1.8,128.0,2.3,'11111222,11111222,11111222' 
TCOON,ioos:station:TCOON:005:1,2017-08-01T06:12:00Z,27.6346,-97.2370,0.0,1.8,121.0,2.3,'11111222,11111222,11111222' 
TCOON,ioos:station:TCOON:005:1,2017-08-01T06:18:00Z,27.6346,-97.2370,0.0,1.8,121.0,2.3,'1111122,1111122,1111122' 
TCOON,ioos:station:TCOON:005:1,2017-08-01T06:24:00Z,27.6346,-97.2370,0.0,2.0,113.0,2.4,'11111222,11111222,11111222' 
TCOON,ioos:station:TCOON:005:1,2017-08-01T06:30:00Z,27.6346,-97.2370,0.0,1.8,116.0,2.2,'11111222,11111222,11111222' 
TCOON,ioos:station:TCOON:005:1,2017-08-01T06:36:00Z,27.6346,-97.2370,0.0,1.8,123.0,2.3,'11111222,11111222,11111222' 
TCOON,ioos:station:TCOON:005:1,2017-08-01T06:42:00Z,27.6346,-97.2370,0.0,1.6,129.0,2.0,'11111222,11111222,11111222' 
TCOON,ioos:station:TCOON:005:1,2017-08-01T06:48:00Z,27.6346,-97.2370,0.0,1.5,120.0,2.1,'11111222,11111222,11111222' 
TCOON,ioos:station:TCOON:005:1,2017-08-01T06:54:00Z,27.6346,-97.2370,0.0,1.1,128.0,1.8,'11111222,11111222,11111222' 
TCOON,ioos:station:TCOON:005:1,2017-08-01T07:00:00Z,27.6346,-97.2370,0.0,1.1,120.0,1.4,'11111222,11111222,11111222' 
TCOON,ioos:station:TCOON:005:1,2017-08-01T07:06:00Z,27.6346,-97.2370,0.0,0.9,101.0,1.4,'11111222,11111222,11111222' 
TCOON,ioos:station:TCOON:005:1,2017-08-01T07:12:00Z,27.6346,-97.2370,0.0,1.2,99.0,1.9,'11111222,11111222,11111222' 
TCOON,ioos:station:TCOON:005:1,2017-08-01T07:18:00Z,27.6346,-97.2370,0.0,1.2,99.0,1.9,'1111122,1111122,1111122' 
TCOON,ioos:station:TCOON:005:1,2017-08-01T07:24:00Z,27.6346,-97.2370,0.0,0.6,133.0,1.1,'11111222,11111222,11111222' 
TCOON,ioos:station:TCOON:005:1,2017-08-01T07:30:00Z,27.6346,-97.2370,0.0,0.4,110.0,0.7,'11111222,11111222,11111222' 
TCOON,ioos:station:TCOON:005:1,2017-08-01T07:36:00Z,27.6346,-97.2370,0.0,0.3,63.0,0.8,'11111222,11111222,11111222' 
TCOON,ioos:station:TCOON:005:1,2017-08-01T07:42:00Z,27.6346,-97.2370,0.0,0.6,57.0,1.0,'11111222,11111222,11111222' 
TCOON,ioos:station:TCOON:005:1,2017-08-01T07:48:00Z,27.6346,-97.2370,0.0,0.9,70.0,1.2,'11111222,11111222,11111222' 
TCOON,ioos:station:TCOON:005:1,2017-08-01T07:54:00Z,27.6346,-97.2370,0.0,1.2,54.0,2.0,'11111222,11111222,11111222' 
TCOON,ioos:station:TCOON:005:1,2017-08-01T08:00:00Z,27.6346,-97.2370,0.0,1.9,58.0,2.2,'11111222,11111222,11111222' 
TCOON,ioos:station:TCOON:005:1,2017-08-01T08:06:00Z,27.6346,-97.2370,0.0,2.3,60.0,3.4,'11111222,11111222,11111222' 
TCOON,ioos:station:TCOON:005:1,2017-08-01T08:12:00Z,27.6346,-97.2370,0.0,2.1,61.0,2.5,'11111222,11111222,11111222' 
TCOON,ioos:station:TCOON:005:1,2017-08-01T08:18:00Z,27.6346,-97.2370,0.0,2.1,61.0,2.5,'1111122,1111122,1111122' 
TCOON,ioos:station:TCOON:005:1,2017-08-01T08:24:00Z,27.6346,-97.2370,0.0,1.9,61.0,2.4,'11111222,11111222,11111222' 
TCOON,ioos:station:TCOON:005:1,2017-08-01T08:30:00Z,27.6346,-97.2370,0.0,2.4,62.0,2.7,'11111222,11111222,11111222' 
TCOON,ioos:station:TCOON:005:1,2017-08-01T08:36:00Z,27.6346,-97.2370,0.0,2.3,55.0,2.6,'11111222,11111222,11111222' 
TCOON,ioos:station:TCOON:005:1,2017-08-01T08:42:00Z,27.6346,-97.2370,0.0,3.0,55.0,3.3,'11111222,11111222,11111222' 
TCOON,ioos:station:TCOON:005:1,2017-08-01T08:48:00Z,27.6346,-97.2370,0.0,3.0,52.0,3.2,'11111222,11111222,11111222' 
TCOON,ioos:station:TCOON:005:1,2017-08-01T08:54:00Z,27.6346,-97.2370,0.0,3.3,57.0,3.6,'11111222,11111222,11111222' 
TCOON,ioos:station:TCOON:005:1,2017-08-01T09:00:00Z,27.6346,-97.2370,0.0,3.4,51.0,3.8,'11111222,11111222,11111222' 
TCOON,ioos:station:TCOON:005:1,2017-08-01T09:06:00Z,27.6346,-97.2370,0.0,3.6,49.0,3.9,'11111222,11111222,11111222' 
TCOON,ioos:station:TCOON:005:1,2017-08-01T09:12:00Z,27.6346,-97.2370,0.0,3.3,45.0,4.0,'11111222,11111222,11111222' 
TCOON,ioos:station:TCOON:005:1,2017-08-01T09:18:00Z,27.6346,-97.2370,0.0,3.3,45.0,4.0,'1111122,1111122,1111122' 
TCOON,ioos:station:TCOON:005:1,2017-08-01T09:24:00Z,27.6346,-97.2370,0.0,3.0,40.0,3.9,'11111222,11111222,11111222' 
TCOON,ioos:station:TCOON:005:1,2017-08-01T09:30:00Z,27.6346,-97.2370,0.0,3.4,35.0,4.2,'11111222,11111222,11111222' 
TCOON,ioos:station:TCOON:005:1,2017-08-01T09:36:00Z,27.6346,-97.2370,0.0,3.1,31.0,4.4,'11111222,11111222,11111222' 
TCOON,ioos:station:TCOON:005:1,2017-08-01T09:42:00Z,27.6346,-97.2370,0.0,3.8,32.0,4.7,'11111222,11111222,11111222' 
TCOON,ioos:station:TCOON:005:1,2017-08-01T09:48:00Z,27.6346,-97.2370,0.0,4.0,45.0,4.5,'11111222,11111222,11111222' 
TCOON,ioos:station:TCOON:005:1,2017-08-01T09:54:00Z,27.6346,-97.2370,0.0,3.2,87.0,4.6,'11111222,11111222,11111222' 
TCOON,ioos:station:TCOON:005:1,2017-08-01T10:00:00Z,27.6346,-97.2370,0.0,3.7,78.0,5.3,'11111222,11111222,11111222' 
TCOON,ioos:station:TCOON:005:1,2017-08-01T10:06:00Z,27.6346,-97.2370,0.0,3.6,67.0,4.2,'11111222,11111222,11111222' 
TCOON,ioos:station:TCOON:005:1,2017-08-01T10:12:00Z,27.6346,-97.2370,0.0,3.2,80.0,3.8,'11111222,11111222,11111222' 
TCOON,ioos:station:TCOON:005:1,2017-08-01T10:18:00Z,27.6346,-97.2370,0.0,3.2,80.0,3.8,'1111122,1111122,1111122' 
TCOON,ioos:station:TCOON:005:1,2017-08-01T10:24:00Z,27.6346,-97.2370,0.0,2.7,74.0,3.1,'11111222,11111222,11111222' 
TCOON,ioos:station:TCOON:005:1,2017-08-01T10:30:00Z,27.6346,-97.2370,0.0,2.4,66.0,3.0,'11111222,11111222,11111222' 
TCOON,ioos:station:TCOON:005:1,2017-08-01T10:36:00Z,27.6346,-97.2370,0.0,2.8,59.0,3.1,'11111222,11111222,11111222' 
TCOON,ioos:station:TCOON:005:1,2017-08-01T10:42:00Z,27.6346,-97.2370,0.0,2.8,66.0,3.4,'11111222,11111222,11111222' 
TCOON,ioos:station:TCOON:005:1,2017-08-01T10:48:00Z,27.6346,-97.2370,0.0,2.8,62.0,3.3,'11111222,11111222,11111222' 
TCOON,ioos:station:TCOON:005:1,2017-08-01T10:54:00Z,27.6346,-97.2370,0.0,3.0,59.0,3.3,'11111222,11111222,11111222' 
TCOON,ioos:station:TCOON:005:1,2017-08-01T11:00:00Z,27.6346,-97.2370,0.0,3.3,56.0,3.6,'11111222,11111222,11111222' 
TCOON,ioos:station:TCOON:005:1,2017-08-01T11:06:00Z,27.6346,-97.2370,0.0,3.3,53.0,3.7,'11111222,11111222,11111222' 
TCOON,ioos:station:TCOON:005:1,2017-08-01T11:12:00Z,27.6346,-97.2370,0.0,3.3,44.0,4.0,'11111222,11111222,11111222' 
TCOON,ioos:station:TCOON:005:1,2017-08-01T11:18:00Z,27.6346,-97.2370,0.0,3.3,44.0,4.0,'1111122,1111122,1111122' 
TCOON,ioos:station:TCOON:005:1,2017-08-01T11:24:00Z,27.6346,-97.2370,0.0,3.2,35.0,3.9,'11111222,11111222,11111222' 
TCOON,ioos:station:TCOON:005:1,2017-08-01T11:30:00Z,27.6346,-97.2370,0.0,3.1,35.0,4.3,'11111222,11111222,11111222' 
TCOON,ioos:station:TCOON:005:1,2017-08-01T11:36:00Z,27.6346,-97.2370,0.0,3.6,42.0,4.1,'11111222,11111222,11111222' 
TCOON,ioos:station:TCOON:005:1,2017-08-01T11:42:00Z,27.6346,-97.2370,0.0,3.5,42.0,4.2,'11111222,11111222,11111222' 
TCOON,ioos:station:TCOON:005:1,2017-08-01T11:48:00Z,27.6346,-97.2370,0.0,2.9,41.0,3.9,'11111222,11111222,11111222' 
TCOON,ioos:station:TCOON:005:1,2017-08-01T11:54:00Z,27.6346,-97.2370,0.0,3.7,52.0,4.0,'11111222,11111222,11111222' 
TCOON,ioos:station:TCOON:005:1,2017-08-01T12:00:00Z,27.6346,-97.2370,0.0,3.1,43.0,4.2,'11111222,11111222,11111222' 
TCOON,ioos:station:TCOON:005:1,2017-08-01T12:06:00Z,27.6346,-97.2370,0.0,3.8,45.0,4.5,'11111222,11111222,11111222' 
TCOON,ioos:station:TCOON:005:1,2017-08-01T12:12:00Z,27.6346,-97.2370,0.0,4.0,53.0,4.8,'11111222,11111222,11111222' 
TCOON,ioos:station:TCOON:005:1,2017-08-01T12:18:00Z,27.6346,-97.2370,0.0,4.0,53.0,4.8,'1111122,1111122,1111122' 
TCOON,ioos:station:TCOON:005:1,2017-08-01T12:24:00Z,27.6346,-97.2370,0.0,3.3,59.0,4.0,'11111222,11111222,11111222' 
TCOON,ioos:station:TCOON:005:1,2017-08-01T12:30:00Z,27.6346,-97.2370,0.0,3.8,60.0,4.2,'11111222,11111222,11111222' 
TCOON,ioos:station:TCOON:005:1,2017-08-01T12:36:00Z,27.6346,-97.2370,0.0,3.2,63.0,3.9,'11111222,11111222,11111222' 
TCOON,ioos:station:TCOON:005:1,2017-08-01T12:42:00Z,27.6346,-97.2370,0.0,3.0,69.0,3.6,'11111222,11111222,11111222' 
TCOON,ioos:station:TCOON:005:1,2017-08-01T12:48:00Z,27.6346,-97.2370,0.0,3.1,65.0,3.7,'11111222,11111222,11111222' 
TCOON,ioos:station:TCOON:005:1,2017-08-01T12:54:00Z,27.6346,-97.2370,0.0,3.2,57.0,3.6,'11111222,11111222,11111222' 
TCOON,ioos:station:TCOON:005:1,2017-08-01T13:00:00Z,27.6346,-97.2370,0.0,3.3,60.0,3.7,'11111222,11111222,11111222' 
TCOON,ioos:station:TCOON:005:1,2017-08-01T13:06:00Z,27.6346,-97.2370,0.0,3.3,58.0,3.8,'11111222,11111222,11111222' 
TCOON,ioos:station:TCOON:005:1,2017-08-01T13:12:00Z,27.6346,-97.2370,0.0,3.2,50.0,3.7,'11111222,11111222,11111222' 
TCOON,ioos:station:TCOON:005:1,2017-08-01T13:18:00Z,27.6346,-97.2370,0.0,3.2,50.0,3.7,'1111122,1111122,1111122' 
TCOON,ioos:station:TCOON:005:1,2017-08-01T13:24:00Z,27.6346,-97.2370,0.0,3.1,63.0,3.4,'11111222,11111222,11111222' 
TCOON,ioos:station:TCOON:005:1,2017-08-01T13:30:00Z,27.6346,-97.2370,0.0,3.0,57.0,3.5,'11111222,11111222,11111222' 
TCOON,ioos:station:TCOON:005:1,2017-08-01T13:36:00Z,27.6346,-97.2370,0.0,3.0,66.0,3.4,'11111222,11111222,11111222' 
TCOON,ioos:station:TCOON:005:1,2017-08-01T13:42:00Z,27.6346,-97.2370,0.0,3.2,60.0,3.6,'11111222,11111222,11111222' 
TCOON,ioos:station:TCOON:005:1,2017-08-01T13:48:00Z,27.6346,-97.2370,0.0,2.9,54.0,3.7,'11111222,11111222,11111222' 
TCOON,ioos:station:TCOON:005:1,2017-08-01T13:54:00Z,27.6346,-97.2370,0.0,2.7,51.0,3.5,'11111222,11111222,11111222' 
TCOON,ioos:station:TCOON:005:1,2017-08-01T14:00:00Z,27.6346,-97.2370,0.0,2.5,48.0,3.2,'11111222,11111222,11111222' 
TCOON,ioos:station:TCOON:005:1,2017-08-01T14:06:00Z,27.6346,-97.2370,0.0,2.5,44.0,3.0,'11111222,11111222,11111222' 
TCOON,ioos:station:TCOON:005:1,2017-08-01T14:12:00Z,27.6346,-97.2370,0.0,2.7,31.0,3.5,'11111222,11111222,11111222' 
TCOON,ioos:station:TCOON:005:1,2017-08-01T14:18:00Z,27.6346,-97.2370,0.0,2.7,31.0,3.5,'1111122,1111122,1111122' 
TCOON,ioos:station:TCOON:005:1,2017-08-01T14:24:00Z,27.6346,-97.2370,0.0,2.4,39.0,3.8,'11111222,11111222,11111222' 
TCOON,ioos:station:TCOON:005:1,2017-08-01T14:30:00Z,27.6346,-97.2370,0.0,3.0,26.0,3.9,'11111222,11111222,11111222' 
TCOON,ioos:station:TCOON:005:1,2017-08-01T14:36:00Z,27.6346,-97.2370,0.0,2.2,35.0,3.9,'11111222,11111222,11111222' 
TCOON,ioos:station:TCOON:005:1,2017-08-01T14:42:00Z,27.6346,-97.2370,0.0,3.1,32.0,3.8,'11111222,11111222,11111222' 
TCOON,ioos:station:TCOON:005:1,2017-08-01T14:48:00Z,27.6346,-97.2370,0.0,3.1,30.0,4.0,'11111222,11111222,11111222' 
TCOON,ioos:station:TCOON:005:1,2017-08-01T14:54:00Z,27.6346,-97.2370,0.0,2.8,25.0,3.8,'11111222,11111222,11111222' 
TCOON,ioos:station:TCOON:005:1,2017-08-01T15:00:00Z,27.6346,-97.2370,0.0,2.8,23.0,3.8,'11111222,11111222,11111222' 
TCOON,ioos:station:TCOON:005:1,2017-08-01T15:06:00Z,27.6346,-97.2370,0.0,2.6,27.0,3.6,'11111222,11111222,11111222' 
TCOON,ioos:station:TCOON:005:1,2017-08-01T15:12:00Z,27.6346,-97.2370,0.0,3.0,24.0,3.8,'11111222,11111222,11111222' 
TCOON,ioos:station:TCOON:005:1,2017-08-01T15:18:00Z,27.6346,-97.2370,0.0,3.0,24.0,3.8,'1111122,1111122,1111122' 
TCOON,ioos:station:TCOON:005:1,2017-08-01T15:24:00Z,27.6346,-97.2370,0.0,2.7,32.0,3.9,'11111222,11111222,11111222' 
TCOON,ioos:station:TCOON:005:1,2017-08-01T15:30:00Z,27.6346,-97.2370,0.0,2.3,26.0,3.6,'11111222,11111222,11111222' 
TCOON,ioos:station:TCOON:005:1,2017-08-01T15:36:00Z,27.6346,-97.2370,0.0,3.1,38.0,3.9,'11111222,11111222,11111222' 
TCOON,ioos:station:TCOON:005:1,2017-08-01T15:42:00Z,27.6346,-97.2370,0.0,3.0,32.0,4.0,'11111222,11111222,11111222' 
TCOON,ioos:station:TCOON:005:1,2017-08-01T15:48:00Z,27.6346,-97.2370,0.0,2.7,42.0,3.8,'11111222,11111222,11111222' 
TCOON,ioos:station:TCOON:005:1,2017-08-01T15:54:00Z,27.6346,-97.2370,0.0,2.8,30.0,3.7,'11111222,11111222,11111222' 
TCOON,ioos:station:TCOON:005:1,2017-08-01T16:00:00Z,27.6346,-97.2370,0.0,2.7,39.0,3.7,'11111222,11111222,11111222' 
TCOON,ioos:station:TCOON:005:1,2017-08-01T16:06:00Z,27.6346,-97.2370,0.0,2.8,40.0,4.0,'11111222,11111222,11111222' 
TCOON,ioos:station:TCOON:005:1,2017-08-01T16:12:00Z,27.6346,-97.2370,0.0,2.5,30.0,3.3,'11111222,11111222,11111222' 
TCOON,ioos:station:TCOON:005:1,2017-08-01T16:18:00Z,27.6346,-97.2370,0.0,2.5,30.0,3.3,'1111122,1111122,1111122' 
TCOON,ioos:station:TCOON:005:1,2017-08-01T16:24:00Z,27.6346,-97.2370,0.0,2.3,36.0,3.2,'11111222,11111222,11111222' 
TCOON,ioos:station:TCOON:005:1,2017-08-01T16:30:00Z,27.6346,-97.2370,0.0,2.6,49.0,3.1,'11111222,11111222,11111222' 
TCOON,ioos:station:TCOON:005:1,2017-08-01T16:36:00Z,27.6346,-97.2370,0.0,2.3,55.0,3.5,'11111222,11111222,11111222' 
TCOON,ioos:station:TCOON:005:1,2017-08-01T16:42:00Z,27.6346,-97.2370,0.0,2.5,36.0,3.3,'11111222,11111222,11111222' 
TCOON,ioos:station:TCOON:005:1,2017-08-01T16:48:00Z,27.6346,-97.2370,0.0,2.0,34.0,3.4,'11111222,11111222,11111222' 
TCOON,ioos:station:TCOON:005:1,2017-08-01T16:54:00Z,27.6346,-97.2370,0.0,2.8,47.0,3.7,'11111222,11111222,11111222' 
TCOON,ioos:station:TCOON:005:1,2017-08-01T17:00:00Z,27.6346,-97.2370,0.0,2.4,42.0,3.6,'11111222,11111222,11111222' 
TCOON,ioos:station:TCOON:005:1,2017-08-01T17:06:00Z,27.6346,-97.2370,0.0,2.5,54.0,3.3,'11111222,11111222,11111222' 
TCOON,ioos:station:TCOON:005:1,2017-08-01T17:12:00Z,27.6346,-97.2370,0.0,2.3,50.0,3.0,'11111222,11111222,11111222' 
TCOON,ioos:station:TCOON:005:1,2017-08-01T17:18:00Z,27.6346,-97.2370,0.0,2.3,50.0,3.0,'1111122,1111122,1111122' 
TCOON,ioos:station:TCOON:005:1,2017-08-01T17:24:00Z,27.6346,-97.2370,0.0,2.6,50.0,3.2,'11111222,11111222,11111222' 
TCOON,ioos:station:TCOON:005:1,2017-08-01T17:30:00Z,27.6346,-97.2370,0.0,2.8,55.0,3.4,'11111222,11111222,11111222' 
TCOON,ioos:station:TCOON:005:1,2017-08-01T17:36:00Z,27.6346,-97.2370,0.0,2.8,65.0,3.7,'11111222,11111222,11111222' 
TCOON,ioos:station:TCOON:005:1,2017-08-01T17:42:00Z,27.6346,-97.2370,0.0,2.7,54.0,3.9,'11111222,11111222,11111222' 
TCOON,ioos:station:TCOON:005:1,2017-08-01T17:48:00Z,27.6346,-97.2370,0.0,2.9,65.0,4.0,'11111222,11111222,11111222' 
TCOON,ioos:station:TCOON:005:1,2017-08-01T17:54:00Z,27.6346,-97.2370,0.0,2.2,63.0,3.7,'11111222,11111222,11111222' 
TCOON,ioos:station:TCOON:005:1,2017-08-01T18:00:00Z,27.6346,-97.2370,0.0,3.5,73.0,5.0,'11111222,11111222,11111222' 
TCOON,ioos:station:TCOON:005:1,2017-08-01T18:06:00Z,27.6346,-97.2370,0.0,4.2,62.0,5.7,'11111222,11111222,11111222' 
TCOON,ioos:station:TCOON:005:1,2017-08-01T18:12:00Z,27.6346,-97.2370,0.0,6.2,89.0,7.5,'11111222,11111222,11111222' 
TCOON,ioos:station:TCOON:005:1,2017-08-01T18:18:00Z,27.6346,-97.2370,0.0,6.1,85.0,6.8,'11111222,11111222,11111222' 
TCOON,ioos:station:TCOON:005:1,2017-08-01T18:24:00Z,27.6346,-97.2370,0.0,5.5,94.0,6.6,'11111222,11111222,11111222' 
TCOON,ioos:station:TCOON:005:1,2017-08-01T18:30:00Z,27.6346,-97.2370,0.0,4.8,96.0,6.0,'11111222,11111222,11111222' 
TCOON,ioos:station:TCOON:005:1,2017-08-01T18:36:00Z,27.6346,-97.2370,0.0,4.9,91.0,6.3,'11111222,11111222,11111222' 
TCOON,ioos:station:TCOON:005:1,2017-08-01T18:42:00Z,27.6346,-97.2370,0.0,5.4,95.0,6.3,'11111222,11111222,11111222' 
TCOON,ioos:station:TCOON:005:1,2017-08-01T18:48:00Z,27.6346,-97.2370,0.0,5.0,97.0,6.4,'11111222,11111222,11111222' 
TCOON,ioos:station:TCOON:005:1,2017-08-01T18:54:00Z,27.6346,-97.2370,0.0,5.4,92.0,6.3,'11111222,11111222,11111222' 
TCOON,ioos:station:TCOON:005:1,2017-08-01T19:00:00Z,27.6346,-97.2370,0.0,5.1,92.0,6.5,'11111222,11111222,11111222' 
TCOON,ioos:station:TCOON:005:1,2017-08-01T19:06:00Z,27.6346,-97.2370,0.0,5.1,95.0,6.5,'11111222,11111222,11111222' 
TCOON,ioos:station:TCOON:005:1,2017-08-01T19:12:00Z,27.6346,-97.2370,0.0,5.9,91.0,6.8,'11111222,11111222,11111222' 
TCOON,ioos:station:TCOON:005:1,2017-08-01T19:18:00Z,27.6346,-97.2370,0.0,5.6,84.0,7.0,'11111222,11111222,11111222' 
TCOON,ioos:station:TCOON:005:1,2017-08-01T19:24:00Z,27.6346,-97.2370,0.0,5.9,87.0,7.2,'11111222,11111222,11111222' 
TCOON,ioos:station:TCOON:005:1,2017-08-01T19:30:00Z,27.6346,-97.2370,0.0,5.9,87.0,7.2,'1111122,1111122,1111122' 
TCOON,ioos:station:TCOON:005:1,2017-08-01T19:36:00Z,27.6346,-97.2370,0.0,5.6,87.0,7.0,'11111222,11111222,11111222' 
TCOON,ioos:station:TCOON:005:1,2017-08-01T19:42:00Z,27.6346,-97.2370,0.0,5.7,87.0,7.1,'11111222,11111222,11111222' 
TCOON,ioos:station:TCOON:005:1,2017-08-01T19:48:00Z,27.6346,-97.2370,0.0,6.4,87.0,7.5,'11111222,11111222,11111222' 
TCOON,ioos:station:TCOON:005:1,2017-08-01T19:54:00Z,27.6346,-97.2370,0.0,6.5,85.0,7.2,'11111222,11111222,11111222' 
TCOON,ioos:station:TCOON:005:1,2017-08-01T20:00:00Z,27.6346,-97.2370,0.0,6.2,80.0,7.5,'11111222,11111222,11111222' 
TCOON,ioos:station:TCOON:005:1,2017-08-01T20:06:00Z,27.6346,-97.2370,0.0,6.0,73.0,6.9,'11111222,11111222,11111222' 
TCOON,ioos:station:TCOON:005:1,2017-08-01T20:12:00Z,27.6346,-97.2370,0.0,5.2,89.0,6.9,'11111222,11111222,11111222' 
TCOON,ioos:station:TCOON:005:1,2017-08-01T20:18:00Z,27.6346,-97.2370,0.0,6.4,79.0,7.6,'11111222,11111222,11111222' 
TCOON,ioos:station:TCOON:005:1,2017-08-01T20:24:00Z,27.6346,-97.2370,0.0,6.4,79.0,7.6,'1111122,1111122,1111122' 